New Castle, PA

7:56 AM EDT on March 29, 2017 (GMT -0400)
New Castle Municipal

Weather History for KUCP - June, 2013

Change the Weather History Date:

Friday, June 28, 2013

  Actual Average Record
Temperature  
Mean Temperature 70 °F -  
Max Temperature 80 °F 82 °F 97 °F (1944)
Min Temperature 60 °F 57 °F 36 °F (1927)
Cooling Degree Days 5    
Growing Degree Days 20 (Base 50)    
Moisture  
Dew Point 64 °F    
Average Humidity 93    
Maximum Humidity 100    
Minimum Humidity 58    
Precipitation  
Precipitation 0.42 in - - ()
Sea Level Pressure  
Sea Level Pressure 29.62 in    
Wind  
Wind Speed 1 mph (WSW)    
Max Wind Speed 10 mph    
Max Gust Speed 23 mph    
Visibility 4 miles    
Events Fog , Rain    
Averages and records for this station are not official NWS values.
T = Trace of Precipitation, MM = Missing Value Source: NWS Daily Summary

Daily Weather History Graph

Daily Weather History Graph

Search for Another Location

Airport or City:

Trip Planner

Search our weather history database for the weather conditions in past years. The results will help you decide how hot, cold, wet, or windy it might be!

Date:

Astronomy

Jun. 28, 2013 Rise Set
Actual Time 5:51 AM EDT 8:57 PM EDT
Civil Twilight 5:18 AM EDT 9:31 PM EDT
Nautical Twilight 4:35 AM EDT 10:14 PM EDT
Astronomical Twilight 3:44 AM EDT 11:05 PM EDT
Moon No Moon Rise 12:00 PM EDT (6/28)
Length of Visible Light 16h 13m
Length of Day
15h 06m
Waning Gibbous, 66% of the Moon is Illuminated
Jun 28
Waning Gibbous
Jun 30
Last Quarter
Jul 8
New
Jul 15
First Quarter
Jul 22
Full

Hourly Weather History & Observations

Time (EDT) Temp. Heat Index Dew Point Humidity Pressure Visibility Wind Dir Wind Speed Gust Speed Precip Events Conditions
12:10 AM 64.4 °F - 64.4 °F 100% 29.68 in 2.0 mi Calm Calm - N/A   Clear
12:22 AM 64.4 °F - 64.4 °F 100% 29.67 in 5.0 mi ENE 3.5 mph - N/A   Clear
12:56 AM 63.9 °F - 63.9 °F 100% 29.70 in 0.5 mi Calm Calm - N/A Fog Fog
1:03 AM 64.4 °F - 64.4 °F 100% 29.66 in 0.8 mi Calm Calm - N/A   Clear
1:06 AM 64.4 °F - 64.4 °F 100% 29.66 in 1.2 mi Calm Calm - N/A   Clear
1:09 AM 64.4 °F - 64.4 °F 100% 29.66 in 3.0 mi Calm Calm - N/A   Clear
1:18 AM 64.4 °F - 64.4 °F 100% 29.66 in 1.5 mi WSW 4.6 mph - N/A   Clear
1:20 AM 64.4 °F - 64.4 °F 100% 29.66 in 1.0 mi WSW 4.6 mph - N/A   Clear
1:27 AM 64.4 °F - 64.4 °F 100% 29.66 in 0.8 mi SW 3.5 mph - N/A   Clear
1:36 AM 64.4 °F - 64.4 °F 100% 29.65 in 0.8 mi Calm Calm - N/A   Mist
1:43 AM 64.4 °F - 64.4 °F 100% 29.65 in 1.0 mi Calm Calm - N/A   Clear
1:46 AM 64.4 °F - 64.4 °F 100% 29.66 in 2.0 mi Calm Calm - N/A   Clear
1:56 AM 63.9 °F - 63.9 °F 100% 29.69 in 2.5 mi Calm Calm - N/A   Clear
2:56 AM 63.9 °F - 63.9 °F 100% 29.69 in 6.0 mi Calm Calm - N/A   Mostly Cloudy
3:18 AM 64.4 °F - 64.4 °F 100% 29.67 in 5.0 mi Calm Calm - N/A   Overcast
3:56 AM 63.0 °F - 63.0 °F 100% 29.68 in 7.0 mi Calm Calm - N/A   Scattered Clouds
4:56 AM 61.9 °F - 61.9 °F 100% 29.66 in 4.0 mi Calm Calm - N/A   Clear
5:03 AM 62.6 °F - 62.6 °F 100% 29.63 in 1.8 mi Calm Calm - N/A   Clear
5:05 AM 62.6 °F - 62.6 °F 100% 29.63 in 1.0 mi Calm Calm - N/A   Clear
5:13 AM 62.6 °F - 62.6 °F 100% 29.63 in 0.8 mi Calm Calm - N/A   Clear
5:15 AM 62.6 °F - 62.6 °F 100% 29.63 in 1.2 mi Calm Calm - N/A   Clear
5:18 AM 62.6 °F - 62.6 °F 100% 29.63 in 2.5 mi Calm Calm - N/A   Clear
5:25 AM 62.6 °F - 62.6 °F 100% 29.63 in 5.0 mi Calm Calm - N/A   Partly Cloudy
5:34 AM 60.8 °F - 60.8 °F 100% 29.63 in 1.8 mi Calm Calm - N/A   Mostly Cloudy
5:46 AM 62.6 °F - 62.6 °F 100% 29.63 in 2.0 mi Calm Calm - N/A   Partly Cloudy
5:56 AM 61.0 °F - 61.0 °F 100% 29.66 in 2.0 mi Calm Calm - N/A   Partly Cloudy
6:02 AM 60.8 °F - 60.8 °F 100% 29.63 in 1.0 mi Calm Calm - N/A   Mostly Cloudy
6:05 AM 60.8 °F - 60.8 °F 100% 29.63 in 0.5 mi Calm Calm - N/A Fog Fog
6:09 AM 60.8 °F - 60.8 °F 100% 29.63 in 0.2 mi Calm Calm - N/A Fog Fog
6:15 AM 60.8 °F - 60.8 °F 100% 29.63 in 0.8 mi Calm Calm - N/A   Mostly Cloudy
6:18 AM 60.8 °F - 60.8 °F 100% 29.63 in 1.2 mi Calm Calm - N/A   Mostly Cloudy
6:29 AM 62.6 °F - 62.6 °F 100% 29.63 in 2.0 mi Calm Calm - N/A   Overcast
6:39 AM 62.6 °F - 62.6 °F 100% 29.63 in 1.2 mi Calm Calm - N/A   Overcast
6:48 AM 62.6 °F - 62.6 °F 100% 29.63 in 2.0 mi Calm Calm - N/A   Overcast
6:56 AM 63.0 °F - 63.0 °F 100% 29.65 in 4.0 mi Calm Calm - N/A   Mostly Cloudy
7:06 AM 64.4 °F - 64.4 °F 100% 29.63 in 4.0 mi Calm Calm - N/A   Overcast
7:21 AM 64.4 °F - 64.4 °F 100% 29.62 in 2.5 mi Calm Calm - N/A   Overcast
7:33 AM 64.4 °F - 64.4 °F 100% 29.62 in 4.0 mi Calm Calm - N/A   Overcast
7:44 AM 64.4 °F - 64.4 °F 100% 29.62 in 1.8 mi Calm Calm - N/A   Overcast
7:56 AM 65.8 °F - 65.8 °F 100% 29.64 in 2.0 mi Calm Calm - N/A   Overcast
8:01 AM 66.2 °F - 66.2 °F 100% 29.62 in 3.0 mi Calm Calm - N/A   Overcast
8:56 AM 68.9 °F - 66.9 °F 93% 29.64 in 6.0 mi Calm Calm - N/A   Overcast
9:56 AM 72.0 °F - 66.9 °F 84% 29.62 in 10.0 mi WSW 5.8 mph - N/A   Overcast
10:06 AM 73.4 °F - 66.2 °F 78% 29.60 in 10.0 mi WSW 6.9 mph - N/A   Overcast
10:40 AM 75.2 °F - 66.2 °F 73% 29.58 in 10.0 mi West 8.1 mph - N/A   Mostly Cloudy
10:56 AM 74.8 °F - 65.8 °F 73% 29.61 in 10.0 mi WNW 5.8 mph - N/A   Scattered Clouds
11:15 AM 75.2 °F - 66.2 °F 73% 29.58 in 10.0 mi West 6.9 mph - N/A   Mostly Cloudy
11:26 AM 77.0 °F - 66.2 °F 69% 29.58 in 10.0 mi West 6.9 mph - N/A   Mostly Cloudy
11:56 AM 77.9 °F - 65.8 °F 66% 29.60 in 10.0 mi West 10.4 mph - N/A   Scattered Clouds
12:56 PM 77.9 °F - 66.9 °F 69% 29.59 in 10.0 mi WSW 8.1 mph - N/A   Scattered Clouds
1:56 PM 80.6 °F 82.3 °F 64.4 °F 58% 29.54 in 10.0 mi WNW 10.4 mph - N/A   Mostly Cloudy
2:47 PM 75.2 °F - 60.8 °F 61% 29.56 in 1.8 mi WNW 5.8 mph 23.0 mph 0.14 in Rain Light Rain
2:49 PM 73.4 °F - 60.8 °F 65% 29.56 in 0.8 mi Variable 4.6 mph - 0.18 in Rain Heavy Rain
2:56 PM 64.9 °F - 61.9 °F 90% 29.58 in 0.5 mi Calm Calm - 0.30 in Fog , Rain Heavy Rain
3:08 PM 64.4 °F - 64.4 °F 100% 29.55 in 0.8 mi Calm Calm - 0.11 in Rain Rain
3:11 PM 64.4 °F - 64.4 °F 100% 29.55 in 1.2 mi Calm Calm - 0.11 in Rain Light Rain
3:14 PM 66.2 °F - 64.4 °F 94% 29.55 in 2.0 mi Calm Calm - 0.11 in Rain Rain
3:16 PM 66.2 °F - 64.4 °F 94% 29.54 in 4.0 mi Calm Calm - 0.11 in Rain Light Rain
3:56 PM 73.9 °F - 68.0 °F 82% 29.55 in 10.0 mi Calm Calm - 0.11 in   Partly Cloudy
4:56 PM 68.9 °F - 64.9 °F 87% 29.57 in 10.0 mi Calm Calm - 0.00 in   Scattered Clouds
5:56 PM 68.0 °F - 64.9 °F 90% 29.59 in 10.0 mi WSW 6.9 mph - 0.01 in Rain Light Rain
6:56 PM 72.9 °F - 66.9 °F 82% 29.57 in 10.0 mi SSW 3.5 mph - 0.00 in   Partly Cloudy
7:56 PM 72.9 °F - 65.8 °F 79% 29.58 in 10.0 mi Calm Calm - N/A   Clear
8:56 PM 66.9 °F - 61.9 °F 84% 29.60 in 10.0 mi WSW 5.8 mph - N/A   Clear
9:56 PM 64.9 °F - 61.0 °F 87% 29.61 in 10.0 mi WSW 5.8 mph - N/A   Scattered Clouds
10:07 PM 64.4 °F - 60.8 °F 88% 29.59 in 10.0 mi WSW 5.8 mph - N/A   Mostly Cloudy
10:56 PM 64.4 °F - 60.8 °F 88% 29.58 in 10.0 mi WSW 3.5 mph - N/A   Scattered Clouds
11:56 PM 61.9 °F - 59.9 °F 93% 29.60 in 10.0 mi Calm Calm - N/A   Clear